CAPE
0 0 0 0 0 0 0 0 0 0 0 0 0 0 0 0 0 0 1 0 14 22 14 0 2 8 16
0 0 0 0 0 0 0 0 0 0 0 0 0 0 0 0 5 5 6 0 0 0 2 7 2 2 9
0 0 0 0 0 0 0 0 0 0 0 0 0 0 0 0 1 9 0 7 3 5 0 0 0 0 1
0 0 1 0 3 6 1 0 0 0 0 0 0 0 0 0 0 0 1 4 0 0 6 15 1 0 0
17 15 3 0 4 7 13 0 0 0 0 0 0 0 0 0 0 0 4 17 3 6 12 22 24 0 0
7 20 4 7 0 5 3 0 2 0 0 0 0 0 0 0 0 0 0 6 6 0 0 0 39 12 0
12 8 17 5 7 0 0 5 0 0 3 0 0 0 0 0 0 0 0 3 0 0 0 0 0 6 0
6 9 14 1 0 3 10 12 2 0 4 0 0 0 0 0 0 0 0 0 0 0 0 0 0 2 1
2 5 18 34 33 6 1 18 1 0 0 0 0 0 0 0 0 0 0 0 11 16 11 8 25 21 19
0 0 0 0 0 7 4 6 2 1 0 0 0 0 0 0 0 0 0 0 0 0 0 9 6 10 15
0 0 0 0 0 0 0 10 9 1 0 1 0 0 0 0 0 0 0 0 0 0 0 0 1 8 18
0 0 0 0 0 0 0 1 7 4 0 0 0 1 3 0 0 0 0 0 0 0 0 0 0 9 2
0 0 0 0 0 0 0 0 0 0 0 0 4 0 0 0 0 0 0 0 0 0 0 0 0 0 1
0 1 0 0 0 0 0 0 0 0 0 0 0 0 0 0 0 0 0 0 0 0 0 0 0 0 0
0 0 0 0 0 0 0 0 0 0 0 0 0 0 0 0 0 0 0 0 0 0 0 0 0 0 0
1 2 1 0 0 0 0 0 1 1 0 0 0 2 2 0 0 0 0 0 0 0 0 0 0 0 0
0 0 1 0 0 2 0 2 1 3 0 0 1 2 0 0 0 0 0 0 0 0 0 0 0 0 0
CIN
-0 -0 -0 -0 -0 -0 -0 -0 -0 -0 -0 -0 -0 -0 -0 -0 -0 -0 -0 -0 -0 -0 -0 -0 -0 -7 -3
-0 -0 -0 -0 -0 -0 -0 -0 -0 -0 -0 -0 -0 -0 -0 -0 -0 -0 -0 -0 -0 -0 -2 -0 -0 -0 -7
-0 -0 -0 -0 -0 -0 -0 -0 -0 -0 -0 -0 -0 -0 -0 -0 -0 -1 -0 -1 -0 -0 -0 -0 -0 -0 -0
-0 -0 -3 -0 -6 -2 -4 -0 -0 -0 -0 -0 -0 -0 -0 -0 -0 -0 -3 -7 -0 -0 -1 -0 -0 -0 -0
-0 -0 -1 -0 -3 -7 -6 -0 -0 -0 -0 -0 -0 -0 -0 -0 -0 -0 -1 -6 -3 -0 -0 -0 -1 -1 -0
-6 -0 -0 -1 -0 -1 -1 -0 -3 -0 -0 -0 -0 -0 -0 -0 -0 -0 -0 -23 -13 -0 -0 -5 -0 -3 -0
-1 -1 -0 -0 -1 -0 -0 -6 -0 -0 -5 -0 -0 -0 -0 -0 -0 -0 -0 -2 -0 -0 -0 -0 -0 -14 -0
-1 -1 -1 -4 -0 -0 -2 -8 -11 -0 -5 -0 -0 -0 -0 -0 -0 -0 -0 -0 -0 -0 -0 -7 -0 -19 -16
-3 -1 -1 -0 -0 -0 -3 -1 -5 -0 -0 -0 -0 -0 -0 -0 -0 -1 -10 -1 -20 -0 -2 -1 -3 -12 -24
-0 -0 -0 -0 -4 -1 -1 -0 -2 -0 -0 -0 -0 -0 -0 -0 -0 -0 -0 -0 -0 -0 -0 -0 -1 -0 -2
-0 -0 -0 -0 -0 -0 -0 -6 -8 -5 -0 -5 -5 -0 -0 -0 -0 -0 -0 -0 -0 -0 -0 -0 -8 -8 -0
-1 -0 -1 -0 -0 -0 -0 -12 -17 -11 -0 -1 -1 -3 -7 -0 -0 -0 -0 -0 -0 -0 -0 -0 -0 -17 -0
-0 -0 -0 -0 -0 -0 -0 -0 -0 -0 -0 -0 -21 -0 -0 -0 -0 -0 -0 -0 -0 -0 -0 -0 -0 -0 -0
-0 -0 -0 -0 -0 -0 -0 -0 -0 -0 -0 -0 -0 -0 -0 -0 -0 -0 -0 -0 -0 -0 -0 -0 -0 -0 -0
-0 -0 -0 -0 -0 -0 -0 -0 -0 -0 -0 -0 -0 -1 -0 -0 -0 -0 -0 -0 -0 -0 -0 -0 -0 -0 -0
-0 -1 -0 -0 -0 -0 -0 -0 -4 -1 -0 -4 -2 -6 -6 -0 -0 -0 -0 -0 -0 -0 -0 -0 -0 -0 -0
-0 -0 -1 -0 -0 -1 -3 -2 -1 -9 -1 -0 -4 -3 -5 -0 -0 -0 -0 -0 -0 -0 -0 -0 -0 -0 -0
Wind_Speed
49 47 44 43 42 42 43 44 45 45 46 47 48 50 52 52 52 51 50 48 46 45 43 41 41 41 40
53 49 44 40 38 41 39 40 41 42 44 46 46 48 49 50 51 51 51 51 48 46 45 43 41 40 40
47 45 42 38 39 37 38 37 36 38 41 42 43 44 45 46 45 46 46 47 48 47 45 44 43 41 40
40 41 40 38 34 36 39 38 41 38 37 37 40 41 44 44 45 45 45 48 49 48 47 45 43 42 42
38 38 38 38 37 37 39 40 39 38 39 39 37 36 39 41 41 41 39 38 38 40 44 46 43 42 40
36 39 38 36 35 33 33 38 41 36 37 39 34 37 38 38 39 39 38 37 38 40 41 41 44 41 40
38 37 38 35 34 30 30 33 36 39 36 41 34 36 35 36 38 38 37 39 41 40 40 43 44 43 43
33 35 35 31 27 27 29 32 35 36 31 39 35 33 35 36 36 36 38 39 39 39 42 44 44 44 43
34 35 33 29 25 28 29 31 36 39 30 30 33 32 32 34 32 32 28 29 30 32 34 36 40 44 45
32 30 28 26 26 29 28 28 29 38 29 27 28 27 34 26 23 24 27 29 29 31 31 32 33 37 41
30 27 25 23 24 29 30 26 27 29 29 24 27 26 25 27 25 28 29 28 28 31 32 32 33 33 38
26 24 22 21 23 28 28 27 25 24 24 24 25 26 27 30 32 27 29 30 31 31 31 31 31 33 33
23 21 19 16 18 25 24 26 27 22 23 26 23 22 27 32 30 29 31 28 30 29 27 28 30 31 33
19 18 17 17 19 22 22 23 23 22 24 27 28 21 23 27 32 35 32 32 29 32 33 32 31 30 32
16 16 15 15 16 23 20 19 16 21 32 30 28 27 27 26 32 34 36 37 35 35 34 33 33 32 32
18 15 12 13 13 16 17 12 13 20 26 27 26 25 25 29 27 35 36 37 35 33 32 36 36 33 33
13 12 11 10 11 13 12 11 11 12 16 19 19 18 20 34 33 30 35 33 34 35 34 35 37 36 35
Wind_Direction
309 310 308 307 306 306 306 304 303 301 298 296 293 290 286 283 280 277 275 276 274 272 271 271 269 267 267
309 309 307 307 308 307 308 307 305 303 300 297 295 292 287 285 281 276 274 272 272 270 269 268 268 266 265
310 311 310 309 308 308 308 307 308 307 303 300 296 295 292 289 286 281 276 273 271 269 267 265 265 264 263
311 312 311 313 309 307 306 307 305 305 304 303 301 297 292 290 286 283 280 274 270 268 266 263 262 261 260
313 313 313 313 308 305 303 305 303 303 301 301 303 301 297 293 290 286 284 281 274 271 266 262 260 259 259
313 312 312 310 309 305 305 304 301 302 299 297 304 302 299 295 290 288 284 282 276 271 269 266 260 258 258
312 312 312 312 309 303 303 302 301 299 299 295 301 301 301 297 292 288 288 282 277 271 268 265 262 259 258
314 314 313 311 306 306 305 305 302 299 303 295 299 303 302 297 292 291 288 283 279 275 269 264 261 259 258
316 315 313 309 304 304 302 303 300 296 303 302 300 303 301 296 294 293 294 292 287 281 275 270 264 260 258
322 321 318 313 309 303 302 301 302 296 307 304 302 302 295 303 300 297 293 292 288 284 280 276 273 266 258
322 322 321 316 310 303 299 301 303 302 307 309 303 298 296 292 295 295 293 291 289 287 283 277 274 271 262
323 321 320 318 312 305 302 301 302 304 310 309 301 294 291 287 285 293 290 288 287 285 284 280 276 271 267
324 321 319 316 317 311 306 303 302 308 308 302 298 294 290 282 285 286 285 290 288 283 286 283 279 276 267
331 328 325 321 316 316 309 306 308 310 308 301 294 290 293 287 281 276 281 282 288 285 280 279 277 276 270
337 336 332 329 323 314 312 309 309 309 298 299 295 290 284 286 281 280 277 277 281 281 277 275 274 274 272
349 345 335 335 331 325 317 309 308 309 303 304 303 298 291 284 283 281 281 277 278 280 277 272 272 273 271
344 343 343 337 329 331 325 316 307 309 308 309 308 302 295 282 283 283 279 281 278 276 276 272 268 271 271